Theta_e
309 309 311 311 311 311 311 311 310 310 309 306 305 301 300 305 304 305 306 308 308 305 309 308 308 307 308 311 318 320 321 323 323 324 325 326 327 326 326 326 327 327 329 329 335
309 310 310 309 308 307 309 310 308 307 306 303 302 302 301 307 305 304 304 306 300 301 308 308 309 308 308 311 316 318 316 316 317 320 326 325 326 326 326 326 326 326 326 330 334
310 309 308 308 308 309 308 308 307 305 304 302 301 301 301 307 307 304 301 301 301 304 306 308 309 307 307 311 315 316 315 314 318 321 321 321 322 323 324 324 323 324 324 325 328
309 307 305 305 306 308 309 309 309 307 305 302 302 301 301 305 308 304 302 302 302 304 305 308 308 308 307 308 311 311 311 315 316 314 313 314 315 315 316 317 317 319 321 324 324
309 306 305 305 306 306 307 306 306 305 304 301 302 301 304 306 305 303 303 303 304 304 305 307 307 308 307 308 308 308 308 309 309 308 307 306 306 306 307 307 308 310 315 319 319
307 306 305 305 306 306 305 304 304 305 303 301 301 302 305 306 303 303 303 304 304 305 305 306 307 308 310 307 308 310 309 307 306 306 307 307 306 307 308 309 311 311 309 310 315
307 307 306 306 305 305 305 304 304 304 302 302 302 305 304 303 302 303 303 304 305 306 305 306 307 307 306 306 308 308 308 308 308 307 304 304 302 304 309 309 308 308 308 308 309
307 307 307 307 306 305 305 304 303 302 302 301 302 305 304 301 302 303 303 304 305 306 306 306 306 308 309 308 308 306 307 307 308 304 304 303 303 305 305 304 304 304 304 305 305
307 306 307 307 305 305 304 303 301 303 301 301 305 306 302 300 302 303 303 304 304 304 304 306 307 307 307 306 306 306 305 304 304 304 303 303 303 304 305 304 304 305 305 305 305
307 305 307 307 305 305 303 301 302 300 301 301 301 303 301 302 302 302 303 304 304 303 304 305 306 306 304 303 308 303 303 302 303 303 304 304 304 304 305 305 305 305 305 305 305
307 305 307 307 305 303 301 301 303 304 303 303 302 302 302 302 302 302 303 304 303 304 304 304 306 302 301 302 302 303 304 305 305 306 305 305 305 305 305 306 306 306 305 306 306
306 305 307 307 303 299 301 302 303 303 302 302 302 302 302 302 302 303 303 304 304 304 304 305 303 302 302 304 304 305 306 311 307 305 305 306 306 306 305 305 305 305 305 306 307
305 305 307 306 303 303 303 304 300 302 301 302 301 303 303 302 301 303 303 304 304 304 303 304 303 302 303 303 303 304 306 306 306 306 306 307 306 304 305 305 305 306 306 307 307
305 305 307 306 303 303 303 300 300 298 306 302 301 302 301 301 302 302 301 304 304 302 304 304 302 302 302 303 303 303 304 304 305 309 309 307 311 306 304 305 306 305 307 307 310
305 305 307 304 305 303 303 299 301 299 316 299 300 299 300 302 301 303 300 302 302 302 303 303 302 302 303 303 303 302 304 304 305 309 310 309 309 305 306 304 304 305 306 308 310
305 307 307 304 303 303 299 300 300 313 316 301 300 300 301 302 301 300 301 301 301 303 304 304 302 302 304 303 303 304 305 305 307 308 309 309 310 307 304 304 304 305 305 308 308
305 307 306 303 305 299 300 301 310 310 298 304 301 300 300 302 301 300 301 303 304 305 306 303 302 302 303 303 304 304 305 307 307 310 310 303 306 306 305 305 304 304 305 307 309
307 307 304 302 300 298 300 306 302 310 306 298 300 299 300 300 300 299 301 302 303 302 303 303 304 301 303 303 303 302 304 306 305 303 307 305 306 304 304 304 304 304 305 307 307
308 304 302 300 298 299 303 306 320 310 299 302 299 300 301 300 299 298 300 301 303 302 303 302 302 301 300 300 301 304 305 304 305 306 308 304 303 303 304 304 304 303 305 305 306
304 302 301 299 298 300 305 307 305 297 298 300 308 300 305 301 301 301 300 300 302 302 300 301 301 300 300 300 301 302 303 305 306 306 304 304 306 304 306 303 304 305 305 305 305
303 303 299 299 299 303 307 309 300 295 299 299 307 301 299 301 301 302 301 300 301 302 301 300 300 302 300 302 302 303 304 304 305 303 304 304 305 305 306 304 306 305 305 305 303
300 303 297 297 304 302 306 301 296 298 299 299 299 302 302 299 301 300 302 299 299 302 301 300 301 301 301 299 299 300 302 303 304 301 302 302 302 303 304 305 304 304 305 302 302
301 298 296 296 305 303 298 297 298 299 299 299 299 299 299 299 300 300 298 297 299 302 301 300 300 301 305 304 302 302 301 302 302 302 302 303 303 302 304 303 304 304 302 301 300
298 300 297 297 301 304 300 301 300 299 299 299 299 298 298 298 298 298 298 297 297 299 299 298 299 300 299 300 298 298 298 298 299 301 301 302 302 302 304 303 304 301 300 300 300
298 301 300 301 301 300 300 304 301 300 298 299 298 299 299 300 299 298 298 297 298 298 299 300 298 299 299 299 298 297 297 297 298 299 300 300 301 302 302 302 300 299 300 299 299
298 299 297 302 302 301 298 301 300 300 299 299 299 299 299 301 300 300 298 297 298 298 299 299 298 295 296 297 295 296 296 297 297 297 298 299 300 302 303 300 298 297 299 298 298
296 295 301 300 301 302 303 303 299 298 298 299 298 299 299 299 298 296 297 297 297 298 299 297 297 297 297 295 294 297 296 296 298 299 299 299 300 301 301 298 297 298 297 297 297
Wind_Speed
5 7 8 8 8 9 9 10 11 11 12 13 14 14 8 4 13 11 15 13 16 16 12 13 5 7 5 6 8 8 8 15 20 21 21 16 16 14 12 10 13 10 11 11 4
7 8 10 10 10 9 9 8 10 11 12 14 14 12 6 3 0 15 12 17 13 12 11 11 9 8 4 6 4 9 12 16 15 15 13 14 15 15 18 19 20 18 17 13 8
7 8 9 10 10 10 10 9 10 11 13 14 14 13 4 2 4 6 16 14 13 12 9 8 7 4 4 5 6 5 16 15 12 9 8 12 14 15 19 22 19 19 17 17 10
8 9 9 9 9 8 8 8 8 10 12 14 13 14 1 2 2 8 13 12 12 11 8 6 4 1 2 4 2 9 12 8 9 12 12 15 18 19 20 22 22 24 23 22 21
9 10 9 9 8 8 8 8 8 10 11 13 13 11 1 3 5 8 13 10 8 7 9 7 8 5 2 3 7 10 9 9 12 14 14 16 18 21 23 23 22 24 23 23 23
11 11 9 9 8 8 8 8 9 9 10 11 12 6 2 2 6 9 12 8 9 8 8 8 4 5 1 3 5 6 11 15 13 13 12 14 15 15 17 15 13 16 21 19 21
10 9 8 8 8 8 8 9 10 11 11 8 8 4 10 5 5 9 11 5 7 7 6 6 5 5 5 6 3 9 11 12 2 3 15 13 17 9 2 9 14 15 14 17 19
11 9 9 9 8 8 8 9 12 12 7 6 4 2 4 3 3 12 13 3 5 6 4 4 4 3 4 7 4 7 5 6 4 11 5 10 13 5 14 15 22 24 22 21 22
11 9 9 9 8 7 8 9 9 6 6 6 1 1 5 2 5 10 12 9 7 4 3 2 3 4 2 7 6 3 8 13 11 6 10 8 22 17 22 22 22 23 24 23 22
12 10 9 10 8 7 7 8 5 5 7 4 1 4 3 2 3 8 12 9 5 7 3 2 1 2 1 8 4 11 13 12 15 11 20 21 25 22 21 23 26 26 24 23 22
11 11 8 7 7 8 6 4 4 3 8 5 5 3 2 5 1 6 8 8 7 3 4 2 3 3 4 4 5 10 13 16 17 20 17 16 25 25 24 24 25 23 21 20 20
9 9 9 6 4 7 4 2 3 2 1 2 2 3 2 4 2 5 10 4 4 6 8 5 1 3 3 3 6 10 14 13 14 11 19 20 27 27 22 21 22 22 21 21 20
9 8 6 7 4 3 3 2 2 2 4 3 1 3 2 5 2 4 8 2 3 7 9 6 4 2 5 10 9 10 13 11 18 21 20 17 19 11 21 19 16 19 18 15 16
10 8 7 5 4 3 1 1 1 1 2 5 4 2 2 2 2 3 4 2 2 2 8 6 3 3 8 11 5 10 7 14 19 16 8 13 11 12 17 21 21 17 10 12 13
11 9 9 10 2 3 4 4 0 4 4 4 4 1 2 3 2 2 2 1 3 3 3 4 5 7 9 3 3 7 13 17 20 17 13 13 6 11 27 23 17 17 16 13 14
12 13 13 8 3 2 5 5 1 2 6 5 2 2 3 0 1 3 1 2 1 5 7 12 4 4 3 7 10 13 15 21 11 2 5 11 11 18 25 20 20 21 19 18 18
14 16 14 8 2 8 6 2 2 5 1 4 3 2 1 1 2 1 2 1 2 4 3 7 5 2 4 8 6 5 13 5 3 7 14 15 17 22 27 22 22 22 22 21 19
19 18 15 9 6 11 3 2 3 1 4 1 3 3 4 2 2 1 3 4 3 3 4 4 3 6 7 3 6 12 3 3 8 12 19 19 11 10 22 23 21 18 20 20 24
23 13 7 10 13 10 3 1 4 3 4 6 4 4 4 3 2 2 5 2 2 2 3 4 4 2 6 7 4 2 5 6 7 15 14 9 23 21 16 11 17 23 21 24 24
18 11 7 14 14 5 3 5 4 0 5 3 5 4 6 5 3 2 5 5 5 4 1 1 7 1 3 3 10 11 7 3 5 7 14 15 25 13 16 17 22 21 24 25 24
17 3 4 15 11 3 4 6 4 4 5 4 2 4 4 5 5 3 2 5 5 7 2 2 3 2 4 6 5 4 5 7 8 6 7 11 15 7 12 22 17 26 26 24 27
10 4 8 17 4 2 4 6 3 7 6 4 3 4 6 7 5 5 6 4 4 8 4 4 2 6 8 13 10 8 11 11 6 9 13 13 21 22 18 21 25 27 23 27 26
6 2 2 4 6 6 1 3 5 7 7 7 8 5 4 6 3 6 4 1 8 7 4 6 3 6 4 2 3 4 7 10 14 12 20 11 12 13 24 27 27 21 24 24 26
4 5 2 3 4 9 6 5 5 10 4 6 4 6 4 6 6 2 4 4 8 5 4 6 3 10 10 12 13 14 17 17 16 10 18 23 33 31 24 29 26 23 25 21 24
3 5 6 7 11 11 11 8 8 8 7 11 6 11 9 6 7 5 7 4 7 9 7 3 6 10 18 20 21 23 24 23 20 24 16 31 30 28 28 25 27 18 22 24 22
6 4 2 4 9 19 12 12 13 9 13 7 11 15 14 7 9 7 8 8 7 11 11 6 4 2 9 8 10 16 23 24 25 25 24 26 32 24 21 24 24 23 17 26 21
4 3 4 8 8 13 15 16 15 11 12 8 18 9 17 18 8 2 6 2 2 8 12 6 4 2 7 7 12 9 10 7 12 13 14 20 23 20 22 24 21 18 19 23 20
Wind_Direction
19 2 354 346 345 348 352 353 353 354 354 353 352 353 357 70 49 52 38 341 329 329 342 335 316 320 242 244 245 248 245 249 255 260 271 268 263 264 268 268 273 252 260 298 33
346 335 330 332 337 339 342 339 342 345 347 351 352 352 356 173 130 48 355 342 347 347 349 354 350 329 228 243 224 232 238 256 273 302 321 326 306 292 290 282 277 264 259 248 228
317 323 322 323 323 324 326 332 336 340 343 348 352 352 345 170 230 21 354 3 1 359 337 325 320 321 251 272 212 270 250 285 308 3 329 299 287 284 278 271 273 281 281 284 255
325 324 324 322 319 315 310 314 322 330 338 346 352 351 19 216 321 355 354 4 3 354 353 339 334 312 272 254 357 270 254 292 305 311 304 290 294 281 272 278 292 288 288 288 278
327 328 327 329 325 321 314 319 325 331 337 343 350 352 284 121 46 342 351 347 352 2 18 9 22 348 335 312 301 253 292 305 290 292 287 288 278 280 277 278 278 278 275 274 279
333 339 333 328 319 320 321 318 320 325 333 342 355 12 276 92 340 350 352 353 2 7 24 28 24 355 322 302 282 345 291 289 292 291 294 286 291 287 275 292 305 290 281 280 285
330 338 339 332 326 321 324 325 324 322 325 333 355 1 62 69 354 2 352 347 1 2 3 22 357 319 337 292 328 289 293 290 263 296 309 347 283 254 111 287 287 288 284 282 278
322 325 322 322 325 328 329 328 327 321 314 331 1 332 73 3 5 359 0 4 360 9 4 354 340 326 335 317 263 300 284 333 147 332 326 340 291 337 325 302 297 291 286 281 275
311 315 319 317 324 328 326 332 340 343 336 336 308 237 107 9 18 351 354 339 330 1 34 26 308 350 289 318 283 204 323 319 322 303 312 317 296 292 300 293 293 289 285 283 280
304 302 306 312 319 319 330 325 331 353 319 296 295 172 92 10 341 338 349 337 328 317 231 323 228 247 230 360 333 310 312 307 303 314 311 304 286 293 299 293 289 288 284 283 281
299 303 297 302 317 321 347 328 231 168 37 17 6 357 56 348 64 16 356 330 315 273 344 9 255 25 16 2 307 295 295 298 302 307 309 298 293 296 299 293 285 287 289 287 285
292 300 296 295 308 342 344 320 31 41 245 9 328 315 326 338 158 35 0 8 340 326 323 224 216 59 11 333 302 296 293 289 293 303 310 295 294 291 286 285 296 295 293 292 293
276 277 264 272 276 18 41 79 93 25 263 160 261 283 321 307 60 26 0 6 9 316 331 295 22 347 326 317 305 295 301 309 304 311 298 303 296 312 304 288 297 294 285 290 289
260 250 217 230 286 170 121 158 38 74 279 161 180 136 245 303 128 20 15 4 170 336 315 278 77 306 302 301 290 305 354 307 302 316 309 338 294 308 296 309 301 301 313 291 292
246 225 204 179 324 248 126 137 47 272 302 131 133 47 275 306 354 94 23 192 320 308 269 50 317 307 297 306 285 282 319 301 291 287 300 293 251 285 300 307 313 316 314 292 279
232 202 197 198 210 212 159 124 183 298 243 156 163 184 214 53 87 333 257 133 30 290 244 265 292 266 297 298 263 291 295 294 272 307 246 255 252 300 299 302 316 300 306 297 298
211 203 178 182 159 178 155 198 31 232 48 177 169 173 270 173 180 68 304 126 356 306 299 317 211 208 256 290 190 260 329 312 276 286 284 298 309 271 289 295 318 310 306 306 293
195 194 192 184 190 159 156 53 222 62 215 129 152 156 243 180 178 187 224 215 169 266 289 319 230 194 169 265 308 307 296 315 305 312 300 301 260 275 309 298 300 320 316 316 312
189 168 174 187 168 162 153 197 248 187 139 157 148 192 179 189 271 258 229 248 135 216 287 305 265 158 238 272 241 109 247 335 274 264 275 268 278 294 297 301 320 320 310 311 306
161 158 154 175 167 171 99 242 257 87 127 177 213 196 185 177 220 168 204 154 173 198 291 80 285 195 291 275 232 238 351 277 237 291 302 289 297 286 315 318 314 310 313 315 328
149 161 176 167 153 178 207 208 239 202 183 203 237 172 208 185 179 223 217 152 195 173 220 220 257 219 296 201 282 211 252 217 263 265 295 306 307 311 318 307 311 318 321 331 311
141 178 171 158 176 181 202 187 198 183 188 207 192 213 194 186 183 228 232 213 155 153 193 197 276 273 262 301 297 261 269 280 270 285 285 294 276 291 282 326 318 321 332 317 314
129 111 153 192 202 209 130 223 233 176 196 189 201 200 175 187 220 218 218 217 171 192 184 173 199 298 275 158 111 218 234 238 265 274 267 276 268 291 311 311 320 326 325 316 313
132 143 143 213 238 223 172 204 217 207 221 193 164 142 154 200 213 236 231 229 197 195 196 165 233 240 258 294 326 287 275 275 272 272 274 260 276 289 311 313 316 330 325 312 317
155 186 177 179 212 208 192 176 176 187 218 195 197 203 177 184 202 224 220 195 200 197 194 223 257 248 264 273 280 279 281 278 255 255 255 269 285 293 303 314 320 336 319 326 324
143 154 199 168 171 186 192 214 198 178 169 203 223 201 199 185 187 188 179 217 199 186 193 184 265 313 286 260 274 281 272 267 265 265 258 265 272 288 315 317 320 338 324 327 330
151 135 155 159 161 175 209 206 206 154 208 203 208 194 206 223 213 73 175 289 234 187 192 185 243 294 270 347 305 267 256 238 267 254 264 276 286 313 312 320 328 320 330 326 332